• Em Portugal
  • Lista de países
  • Para 7 dias
  • Temperatura da água
  • Mapas de satélite
  • Mapa do tempo
  • Widgets de tempo
  • user-avatar
    Iniciar Sessão

    Previsão horária em Galway

    Hoje, 23 Janeiro, Terça-feira

    Tempo Temperatura Precipitação Vento Pressão Humidade
    00:00 +11°C° 0,3 mm 8 m/s 753 mmHg 94%
    01:00 +11°C° 0,3 mm 8 m/s 752 mmHg 94%
    02:00 +11°C° 0,3 mm 8 m/s 752 mmHg 94%
    03:00 +11°C° 0,4 mm 8 m/s 751 mmHg 93%
    04:00 +11°C° 0,4 mm 8 m/s 751 mmHg 92%
    05:00 +10°C° 0,4 mm 9 m/s 751 mmHg 92%
    06:00 +10°C° 0,4 mm 9 m/s 751 mmHg 90%
    07:00 +10°C° 0,4 mm 9 m/s 751 mmHg 89%
    08:00 +10°C° 0,4 mm 8 m/s 751 mmHg 88%
    09:00 +10°C° 0,4 mm 9 m/s 751 mmHg 85%
    10:00 +10°C° 0,4 mm 9 m/s 751 mmHg 83%
    11:00 +8°C° 0,4 mm 9 m/s 751 mmHg 81%
    12:00 +8°C° 0,2 mm 9 m/s 752 mmHg 80%
    13:00 +9°C° 0,2 mm 8 m/s 752 mmHg 78%
    14:00 +7°C° 0,2 mm 8 m/s 752 mmHg 77%
    15:00 +8°C° 0 mm 7 m/s 752 mmHg 79%
    16:00 +7°C° 0 mm 6 m/s 752 mmHg 82%
    17:00 +6°C° 0 mm 5 m/s 752 mmHg 84%
    18:00 +6°C° 0,1 mm 7 m/s 751 mmHg 85%
    19:00 +6°C° 0,1 mm 8 m/s 750 mmHg 85%
    20:00 +6°C° 0,1 mm 10 m/s 748 mmHg 86%
    21:00 +7°C° 1,6 mm 11 m/s 747 mmHg 86%
    22:00 +8°C° 1,6 mm 12 m/s 745 mmHg 87%
    23:00 +9°C° 1,6 mm 13 m/s 743 mmHg 87%

    Amanhã, 24 Janeiro, Quarta-feira

    Tempo Temperatura Precipitação Vento Pressão Humidade
    00:00 +8°C° 3,1 mm 12 m/s 742 mmHg 86%
    01:00 +8°C° 3,1 mm 11 m/s 741 mmHg 85%
    02:00 +7°C° 3,1 mm 10 m/s 741 mmHg 84%
    03:00 +6°C° 0,4 mm 10 m/s 741 mmHg 82%
    04:00 +5°C° 0,4 mm 10 m/s 742 mmHg 80%
    05:00 +3°C° 0,4 mm 10 m/s 742 mmHg 78%
    06:00 +3°C° 0,2 mm 9 m/s 742 mmHg 78%
    07:00 +3°C° 0,2 mm 9 m/s 743 mmHg 77%
    08:00 +4°C° 0,2 mm 8 m/s 743 mmHg 77%
    09:00 +3°C° 0,2 mm 9 m/s 743 mmHg 75%
    10:00 +5°C° 0,2 mm 9 m/s 744 mmHg 72%
    11:00 +5°C° 0,2 mm 9 m/s 744 mmHg 70%
    12:00 +5°C° 0,2 mm 9 m/s 744 mmHg 69%
    13:00 +5°C° 0,2 mm 9 m/s 744 mmHg 69%
    14:00 +5°C° 0,2 mm 9 m/s 744 mmHg 69%
    15:00 +5°C° 0,3 mm 9 m/s 744 mmHg 71%
    16:00 +3°C° 0,3 mm 9 m/s 744 mmHg 73%
    17:00 +4°C° 0,3 mm 8 m/s 744 mmHg 75%
    18:00 +3°C° 0,2 mm 9 m/s 744 mmHg 75%
    19:00 +3°C° 0,2 mm 9 m/s 744 mmHg 75%
    20:00 +3°C° 0,2 mm 9 m/s 744 mmHg 76%
    21:00 +3°C° 0,3 mm 9 m/s 744 mmHg 76%
    22:00 +3°C° 0,3 mm 9 m/s 744 mmHg 76%
    23:00 +3°C° 0,3 mm 9 m/s 744 mmHg 76%

    Depois de amanhã, 25 Janeiro, Quinta-feira

    Tempo Temperatura Precipitação Vento Pressão Humidade
    00:00 +3°C° 0,3 mm 9 m/s 744 mmHg 76%
    01:00 +3°C° 0,3 mm 9 m/s 744 mmHg 76%
    02:00 +3°C° 0,3 mm 9 m/s 744 mmHg 76%
    03:00 +4°C° 0,5 mm 8 m/s 745 mmHg 77%
    04:00 +4°C° 0,5 mm 8 m/s 745 mmHg 77%
    05:00 +4°C° 0,5 mm 8 m/s 745 mmHg 78%
    06:00 +4°C° 0,7 mm 7 m/s 746 mmHg 79%
    07:00 +4°C° 0,7 mm 6 m/s 746 mmHg 80%
    08:00 +5°C° 0,7 mm 5 m/s 747 mmHg 81%
    09:00 +5°C° 0,3 mm 5 m/s 748 mmHg 80%
    10:00 +5°C° 0,3 mm 6 m/s 749 mmHg 79%
    11:00 +7°C° 0,3 mm 6 m/s 750 mmHg 78%
    12:00 +7°C° 0,1 mm 6 m/s 751 mmHg 78%
    13:00 +7°C° 0,1 mm 6 m/s 751 mmHg 77%
    14:00 +7°C° 0,1 mm 5 m/s 752 mmHg 76%
    15:00 +5°C° 0,1 mm 6 m/s 753 mmHg 78%
    16:00 +4°C° 0,1 mm 6 m/s 754 mmHg 80%
    17:00 +3°C° 0,1 mm 6 m/s 755 mmHg 81%
    18:00 +3°C° 0 mm 6 m/s 756 mmHg 81%
    19:00 +4°C° 0 mm 7 m/s 757 mmHg 80%
    20:00 +4°C° 0 mm 7 m/s 758 mmHg 79%
    21:00 +4°C° 0 mm 7 m/s 758 mmHg 80%
    22:00 +4°C° 0 mm 6 m/s 759 mmHg 81%
    23:00 +4°C° 0 mm 6 m/s 760 mmHg 81%

    26 Janeiro, Sexta-feira

    Tempo Temperatura Precipitação Vento Pressão Humidade
    00:00 +3°C° 0 mm 5 m/s 761 mmHg 83%
    01:00 +3°C° 0 mm 5 m/s 762 mmHg 85%
    02:00 +4°C° 0 mm 4 m/s 763 mmHg 86%
    03:00 +4°C° 0 mm 4 m/s 763 mmHg 88%
    04:00 +3°C° 0 mm 3 m/s 764 mmHg 89%
    05:00 +3°C° 0 mm 3 m/s 765 mmHg 90%
    06:00 +4°C° 0 mm 2 m/s 765 mmHg 90%
    07:00 +4°C° 0 mm 2 m/s 766 mmHg 90%
    08:00 +4°C° 0 mm 2 m/s 766 mmHg 90%
    09:00 +5°C° 0 mm 3 m/s 766 mmHg 87%
    10:00 +6°C° 0 mm 4 m/s 766 mmHg 84%
    11:00 +7°C° 0 mm 4 m/s 766 mmHg 81%
    12:00 +7°C° 0,6 mm 4 m/s 765 mmHg 83%
    13:00 +6°C° 0,6 mm 5 m/s 764 mmHg 85%
    14:00 +6°C° 0,6 mm 5 m/s 764 mmHg 86%
    15:00 +6°C° 1,5 mm 5 m/s 763 mmHg 89%
    16:00 +6°C° 1,5 mm 5 m/s 763 mmHg 92%
    17:00 +6°C° 1,5 mm 5 m/s 762 mmHg 95%
    18:00 +6°C° 0,1 mm 5 m/s 763 mmHg 94%
    19:00 +6°C° 0,1 mm 5 m/s 763 mmHg 94%
    20:00 +7°C° 0,1 mm 4 m/s 763 mmHg 94%
    21:00 +6°C° 0 mm 4 m/s 764 mmHg 94%
    22:00 +7°C° 0 mm 3 m/s 764 mmHg 95%
    23:00 +5°C° 0 mm 3 m/s 764 mmHg 95%

    27 Janeiro, Sábado

    Tempo Temperatura Precipitação Vento Pressão Humidade
    00:00 +7°C° 0 mm 3 m/s 764 mmHg 96%
    01:00 +7°C° 0 mm 2 m/s 764 mmHg 96%
    02:00 +7°C° 0 mm 2 m/s 764 mmHg 96%
    03:00 +8°C° 0,5 mm 3 m/s 764 mmHg 97%
    04:00 +7°C° 0,5 mm 4 m/s 764 mmHg 97%
    05:00 +8°C° 0,5 mm 5 m/s 764 mmHg 97%
    06:00 +9°C° 0,2 mm 6 m/s 764 mmHg 96%
    07:00 +9°C° 0,2 mm 6 m/s 764 mmHg 95%
    08:00 +10°C° 0,2 mm 7 m/s 765 mmHg 94%
    09:00 +10°C° 0,1 mm 7 m/s 765 mmHg 94%
    10:00 +10°C° 0,1 mm 7 m/s 765 mmHg 94%
    11:00 +10°C° 0,1 mm 7 m/s 765 mmHg 93%
    12:00 +10°C° 0,1 mm 7 m/s 765 mmHg 93%
    13:00 +11°C° 0,1 mm 7 m/s 765 mmHg 93%
    14:00 +11°C° 0,1 mm 7 m/s 765 mmHg 93%
    15:00 +11°C° 0,1 mm 7 m/s 766 mmHg 94%
    16:00 +11°C° 0,1 mm 6 m/s 766 mmHg 94%
    17:00 +11°C° 0,1 mm 6 m/s 766 mmHg 94%
    18:00 +11°C° 0,1 mm 6 m/s 767 mmHg 94%
    19:00 +11°C° 0,1 mm 6 m/s 767 mmHg 94%
    20:00 +11°C° 0,1 mm 6 m/s 768 mmHg 95%
    21:00 +11°C° 0,1 mm 6 m/s 768 mmHg 94%
    22:00 +11°C° 0,1 mm 7 m/s 768 mmHg 94%
    23:00 +11°C° 0,1 mm 7 m/s 769 mmHg 94%

    28 Janeiro, Domingo

    Tempo Temperatura Precipitação Vento Pressão Humidade
    00:00 +10°C° 0 mm 7 m/s 769 mmHg 94%
    01:00 +10°C° 0 mm 7 m/s 769 mmHg 94%
    02:00 +10°C° 0 mm 7 m/s 769 mmHg 95%
    03:00 +10°C° 0,1 mm 7 m/s 769 mmHg 95%
    04:00 +10°C° 0,1 mm 7 m/s 769 mmHg 95%
    05:00 +10°C° 0,1 mm 7 m/s 770 mmHg 95%
    06:00 +10°C° 0,1 mm 7 m/s 770 mmHg 93%
    07:00 +10°C° 0,1 mm 7 m/s 770 mmHg 92%
    08:00 +10°C° 0,1 mm 7 m/s 770 mmHg 91%
    09:00 +10°C° 0 mm 7 m/s 771 mmHg 90%
    10:00 +11°C° 0 mm 7 m/s 771 mmHg 88%
    11:00 +11°C° 0 mm 7 m/s 771 mmHg 87%
    12:00 +11°C° 0 mm 8 m/s 771 mmHg 87%
    13:00 +11°C° 0 mm 8 m/s 771 mmHg 88%
    14:00 +11°C° 0 mm 8 m/s 770 mmHg 88%
    15:00 +11°C° 0 mm 8 m/s 770 mmHg 89%
    16:00 +10°C° 0 mm 7 m/s 770 mmHg 90%
    17:00 +10°C° 0 mm 7 m/s 770 mmHg 91%
    18:00 +10°C° 0,1 mm 7 m/s 770 mmHg 91%
    19:00 +10°C° 0,1 mm 7 m/s 770 mmHg 91%
    20:00 +10°C° 0,1 mm 7 m/s 770 mmHg 91%
    21:00 +10°C° 0 mm 7 m/s 770 mmHg 90%
    22:00 +10°C° 0 mm 8 m/s 770 mmHg 90%
    23:00 +10°C° 0 mm 8 m/s 770 mmHg 90%
    Mostrar mais